Location: Milton Keynes
(52.0316°N, 0.7531°W)
Time: 17:01:40
(UTC+00:00)

BlueWalker 3 - Visible Passes

Search period start: 14 December 2025 00:00
Search period end: 24 December 2025 00:00
Orbit: 454 x 462 km, 53.2° (Epoch: 13 December)

Date Brightness Start Highest point End Pass type
(mag) Time Alt. Az. Time Alt. Az. Time Alt. Az.
18 Dec 5.0 07:22:51 10° S 07:25:05 16° SE 07:27:20 10° E visible
19 Dec 5.1 06:48:32 10° SSE 06:50:14 13° SE 06:51:56 10° ESE visible
20 Dec 5.3 06:14:45 10° SE 06:15:23 10° SE 06:16:01 10° ESE visible
21 Dec 3.4 07:13:53 10° SW 07:17:12 36° SSE 07:20:33 10° E visible
22 Dec 3.7 06:39:03 10° SSW 06:42:15 31° SE 06:45:28 10° E visible
23 Dec 3.9 06:04:17 10° SSW 06:07:18 26° SE 06:10:20 10° E visible
